Flag for United Kingdom Weather past 2 weeks in Loughton, England, United Kingdom

Now
51 °F

Cool.


Feels Like: 50 °F
Forecast: 41 / 62 °F
Wind: 5 mph from North

Location: Gravesend-Broadness

Current Time: Apr 19, 2015 at 8:29:38 PM

Latest Report: Apr 19, 2015 at 7:00 PM


Visibility: N/A

Pressure: 30.19 "Hg

Humidity: 65%

Dew point: 40 °F

Location of LoughtonLocation

Historic Weather in Loughton — Graph

°F

Loughton temperature yesterday

Maximum temperature yesterday: 56 °F (at 2:00 PM)
Minimum temperature yesterday: 40 °F (at 6:00 AM)
Average temperature yesterday: 48 °F

Past Weeks' High & Low Weather Summary

 TemperatureHumidityPressure
High76 °F (Apr 15, 4:00 PM)98% (Apr 9, 8:00 AM)30.66 "Hg (Apr 9, 8:00 AM)
Low31 °F (Apr 7, 6:00 AM)30% (Apr 15, 1:00 PM)29.90 "Hg (Apr 11, 5:00 AM)
Average50 °F72%30.27 "Hg
* Reported Apr 4 7:00 PM — Apr 19 7:00 PM, Loughton, Weather by CustomWeather, © 2015

Note: Actual official high and low records may vary slightly from our data, if they occured in-between our weather recording intervals... More about our weather records

Advertising

Loughton weather history for previous 24 hours

 ConditionsComfort  
Time TempWeatherWind HumidityBarometerVisibility
7:00 PM
Sun, Apr 19
51 °FCool.5 mph65%30.19 "HgN/A
6:00 PM52 °FCool.6 mph60%30.19 "HgN/A
5:00 PM52 °FCool.5 mph59%30.20 "HgN/A
4:00 PM50 °FCool.8 mph62%30.20 "HgN/A
3:00 PM50 °FCool.9 mph65%30.22 "HgN/A
2:00 PM51 °FCool.8 mph54%30.22 "HgN/A
1:00 PM50 °FCool.9 mph55%30.23 "HgN/A
12:00 PM50 °FCool.8 mph60%30.24 "HgN/A
11:00 AM48 °FCool.10 mph60%30.25 "HgN/A
10:00 AM46 °FCool.9 mph63%30.26 "HgN/A
9:00 AM45 °FCool.6 mph71%30.27 "HgN/A
8:00 AM42 °FQuite cool.7 mph78%30.29 "HgN/A
7:00 AM39 °FChilly.8 mph82%30.29 "HgN/A
6:00 AM40 °FChilly.8 mph81%30.29 "HgN/A
5:00 AM40 °FQuite cool.7 mph82%30.30 "HgN/A
4:00 AM40 °FQuite cool.8 mph82%30.31 "HgN/A
3:00 AM41 °FQuite cool.7 mph83%30.32 "HgN/A
2:00 AM42 °FQuite cool.6 mph83%30.33 "HgN/A
1:00 AM42 °FQuite cool.5 mph84%30.34 "HgN/A
12:00 AM42 °FQuite cool.6 mph84%30.35 "HgN/A
11:00 PM
Sat, Apr 18
43 °FQuite cool.12 mph80%30.34 "HgN/A
10:00 PM45 °FQuite cool.12 mph76%30.34 "HgN/A
9:00 PM46 °FCool.8 mph71%30.34 "HgN/A
8:00 PM49 °FCool.13 mph57%30.33 "HgN/A
Weather by CustomWeather, © 2015

See weather overviewHow to use our weather pages